Overview Statistics Trail Chart Weather Telemetry Raw packets
 

This is the latest recevied weather packets stored in our database for station/object N1YZ. If no packets are shown the sender has not sent any weather packets the latest 10 day(s).

<< 93 94 95 96 97 98 99 >>
Time Temp. Humidity Pressure Rain* Wind** Luminosity Snow
1787961063 28.89° C 64% 1035.1 hPa 0 mm - 6 W/m² -
1787960751 28.89° C 64% 1034.5 hPa 0 mm - 9 W/m² -
1787960445 29.44° C 64% 1034.5 hPa 0 mm - 14 W/m² -
1787960140 29.44° C 63% 1035 hPa 0 mm - 17 W/m² -
1787959840 29.44° C 63% 1034.6 hPa 0 mm - 19 W/m² -
1787959535 30° C 62% 1034.8 hPa 0 mm - 28 W/m² -
1787959234 30° C 61% 1034.7 hPa 0 mm - 29 W/m² -
1787958929 30° C 62% 1034.6 hPa 0 mm - 32 W/m² -
1787958625 30° C 62% 1034.4 hPa 0 mm - 29 W/m² -
1787958320 30° C 63% 1034.6 hPa 0 mm - 29 W/m² -
1787958016 29.44° C 62% 1034.8 hPa 0 mm - 28 W/m² -
1787957714 29.44° C 62% 1034.6 hPa 0 mm - 28 W/m² -
1787957410 29.44° C 62% 1034.6 hPa 0 mm - 29 W/m² -
1787957108 29.44° C 63% 1034.7 hPa 0 mm - 28 W/m² -
1787956804 30° C 61% 1034.7 hPa 0 mm - 26 W/m² -
1787956498 30° C 61% 1034.6 hPa 0 mm - 28 W/m² -
1787956193 30° C 56% 1035 hPa 0 mm - 37 W/m² -
1787955893 30° C 61% 1034.6 hPa 0 mm - 41 W/m² -
1787955588 30.56° C 62% 1034.6 hPa 0 mm - 34 W/m² -
1787955284 30.56° C 59% 1034.6 hPa 0 mm - 41 W/m² -
1787954978 30.56° C 58% 1034.5 hPa 0 mm - 47 W/m² -
1787954674 31.11° C 57% 1034.7 hPa 0 mm - 53 W/m² -
1787954373 31.11° C 58% 1034.7 hPa 0 mm - 67 W/m² -
1787954069 31.11° C 57% 1034.6 hPa 0 mm - 83 W/m² -
1787953767 31.11° C 57% 1034.6 hPa 0 mm - 74 W/m² -

* Rain latest hour (hover to see other rain measurements)
** Current wind speed in m/s (hover to see current wind gust speed)